Glennallen, AK

1:39 AM AKST on January 24, 2017 (GMT -0900)
Gulkana

Weather History for PAGK - October, 2012

Change the Weather History Date:

Friday, October 12, 2012

  Actual Average Record
Temperature  
Mean Temperature 17 °F -  
Max Temperature 28 °F 38 °F 53 °F (1969)
Min Temperature 6 °F 23 °F 0 °F (1991)
Degree Days  
Heating Degree Days 48    
Moisture  
Dew Point 10 °F    
Average Humidity 80    
Maximum Humidity 92    
Minimum Humidity 54    
Precipitation  
Precipitation 0.00 in - - ()
Sea Level Pressure  
Sea Level Pressure 29.48 in    
Wind  
Wind Speed 3 mph (North)    
Max Wind Speed 6 mph    
Max Gust Speed -    
Visibility 10 miles    
Events Fog    
Averages and records for this station are not official NWS values.
T = Trace of Precipitation, MM = Missing Value Source: NWS Daily Summary

Daily Weather History Graph

Daily Weather History Graph

Search for Another Location

Airport or City:

Trip Planner

Search our weather history database for the weather conditions in past years. The results will help you decide how hot, cold, wet, or windy it might be!

Date:

Astronomy

Oct. 12, 2012 Rise Set
Actual Time 8:20 AM AKDT 6:34 PM AKDT
Civil Twilight 7:35 AM AKDT 7:19 PM AKDT
Nautical Twilight 6:43 AM AKDT 8:11 PM AKDT
Astronomical Twilight 5:50 AM AKDT 9:03 PM AKDT
Moon 4:28 AM AKDT (10/12) 5:23 PM AKDT (10/12)
Length of Visible Light 11h 44m
Length of Day
10h 14m
Waning Crescent, 10% of the Moon is Illuminated
Oct 12
Waning Crescent
Oct 15
New
Oct 21
First Quarter
Oct 29
Full
Nov 6
Last Quarter

Hourly Weather History & Observations

Time (AKDT) Temp. Windchill Dew Point Humidity Pressure Visibility Wind Dir Wind Speed Gust Speed Precip Events Conditions
12:53 AM 15.1 °F 9.4 °F 12.0 °F 88% 29.70 in 10.0 mi North 3.5 mph - N/A   Clear
1:53 AM 15.1 °F 7.7 °F 12.0 °F 88% 29.68 in 10.0 mi North 4.6 mph - N/A   Clear
2:53 AM 12.9 °F 3.8 °F 10.9 °F 92% 29.65 in 10.0 mi NNW 5.8 mph - N/A   Clear
3:53 AM 10.9 °F - 9.0 °F 92% 29.64 in 10.0 mi Calm Calm - N/A   Clear
4:53 AM 9.0 °F 2.4 °F 6.1 °F 88% 29.61 in 10.0 mi NNW 3.5 mph - N/A   Clear
5:53 AM 8.1 °F -0.5 °F 5.0 °F 87% 29.59 in 10.0 mi NW 4.6 mph - N/A   Clear
5:57 AM 8.6 °F 2.0 °F 5.0 °F 85% 29.48 in 10.0 mi NW 3.5 mph - N/A   Clear
6:53 AM 7.0 °F - 3.9 °F 87% 29.59 in 10.0 mi Calm Calm - N/A   Clear
7:28 AM 6.8 °F - 3.2 °F 85% 29.45 in 10.0 mi Calm Calm - N/A   Scattered Clouds
7:53 AM 6.1 °F -0.9 °F 1.9 °F 83% 29.57 in 10.0 mi WNW 3.5 mph - N/A   Scattered Clouds
8:53 AM 7.0 °F - 3.0 °F 84% 29.56 in 10.0 mi Calm Calm - N/A   Scattered Clouds
9:53 AM 12.0 °F - 8.1 °F 84% 29.53 in 10.0 mi Calm Calm - N/A Fog Scattered Clouds
10:53 AM 12.0 °F - 9.0 °F 88% 29.52 in 10.0 mi Calm Calm - N/A Fog Scattered Clouds
11:53 AM 16.0 °F 10.4 °F 12.0 °F 84% 29.48 in 10.0 mi Variable 3.5 mph - N/A Fog Scattered Clouds
12:53 PM 18.0 °F 12.7 °F 14.0 °F 84% 29.46 in 10.0 mi NNE 3.5 mph - N/A   Scattered Clouds
1:53 PM 21.0 °F 14.6 °F 15.1 °F 78% 29.44 in 10.0 mi ESE 4.6 mph - N/A   Scattered Clouds
2:53 PM 25.0 °F 20.7 °F 16.0 °F 69% 29.41 in 10.0 mi ENE 3.5 mph - N/A   Scattered Clouds
3:53 PM 27.0 °F - 17.1 °F 66% 29.37 in 10.0 mi Calm Calm - N/A   Scattered Clouds
4:53 PM 28.9 °F - 16.0 °F 58% 29.35 in 10.0 mi Calm Calm - N/A   Scattered Clouds
5:53 PM 27.0 °F - 16.0 °F 63% 29.35 in 10.0 mi Calm Calm - N/A   Scattered Clouds
6:53 PM 23.0 °F - 15.1 °F 72% 29.34 in 10.0 mi Calm Calm - N/A   Scattered Clouds
7:53 PM 18.0 °F 11.1 °F 12.0 °F 78% 29.35 in 10.0 mi NW 4.6 mph - N/A   Scattered Clouds
9:27 PM 17.6 °F 9.3 °F 8.6 °F 68% 29.20 in 10.0 mi NW 5.8 mph - N/A   Partly Cloudy
10:53 PM 15.1 °F 7.7 °F 12.0 °F 88% 29.33 in 10.0 mi East 4.6 mph - N/A   Clear
11:53 PM 9.0 °F 2.4 °F 6.1 °F 88% 29.34 in 10.0 mi ENE 3.5 mph - N/A   Clear